Terminal Aerodrome Forecast
Issued by NWS Upton, NY

Home | Current Version | Previous Version | Text Only | Print | Product List | Glossary On
Versions: 1 2 3 4 5 6 7 8 9 10 11 12 13 14 15 16 17 18 19 20 21 22 23 24 25 26 27 28 29 30 31 32 33 34 35
384
FTUS41 KOKX 202340
TAFBDR
TAF
KBDR 202340Z 2100/2124 12005KT P6SM OVC025
     FM210400 18003KT 1SM -RA BR OVC006
     FM210800 VRB03KT 1SM BR OVC005
     FM211400 26007KT 3SM BR BKN015
     FM211700 26008KT 5SM BR SCT020=

USA.gov is the U.S. government's official web portal to all federal, state and local government web resources and services.